Simultaneous Nadir Overpasses (SNOs) Predictions

Prediction of SNOs between GOES-16 and TERRA Satellite Orbit:

Table of predicted SNOs for the next 14.0 days since TLE Epoch: 2/29/2020
Index Date Time (GOES-16) GOES-16 Lat,Lon TERRA Lat,Lon Distance(km) Time Diff (sec)
1 02/29/2020 15:21:08 -0.03, -75.17 -0.58, -72.55 298.42 80
2 03/01/2020 03:39:51 0.03, -75.16 -0.54, -77.73 293.16 80
3 03/03/2020 03:30:19 0.04, -75.17 0.11, -74.78 44.71 80
4 03/05/2020 03:18:06 0.04, -75.18 0.75, -71.81 383.06 80
5 03/05/2020 15:36:41 -0.05, -75.20 0.33, -76.97 201.23 80
6 03/07/2020 15:27:07 -0.05, -75.22 -0.30, -74.00 138.08 80
7 03/08/2020 03:45:51 0.05, -75.21 -0.78, -79.20 452.75 80
8 03/09/2020 15:14:52 -0.04, -75.24 -0.92, -71.03 478.42 80
9 03/10/2020 03:33:36 0.05, -75.23 -0.14, -76.22 112.15 80
10 03/12/2020 03:24:00 0.05, -75.26 0.47, -73.24 229.44 80
11 03/12/2020 15:42:34 -0.05, -75.28 0.64, -78.39 354.21 80




NCC Satellite Simultaneous Nadir Overpasses (SNOs) Prediction Service
